Wind_Speed
30 30 30 29 28 28 28 28 28 27 26 26 27 27 27 27 27 26 25 24 23 23 23 24 23 22 21 20 20 19 17 16 15 15 15 15 14 14 13 13 12 12 12
32 32 32 31 30 30 29 29 28 28 28 27 27 29 29 28 28 28 28 27 25 24 23 24 24 23 23 22 21 21 20 19 17 17 17 17 17 16 16 15 15 14 14
33 33 32 32 31 30 30 29 29 28 28 28 27 28 30 30 30 30 28 28 28 27 25 24 25 25 24 24 23 22 22 21 20 18 18 18 18 18 18 17 17 17 16
33 33 32 32 32 32 31 31 29 29 28 29 28 27 28 31 30 30 30 29 29 28 27 26 26 26 26 25 24 23 23 22 21 20 20 19 19 20 20 19 19 19 18
34 33 32 32 33 32 31 29 29 29 28 29 29 27 28 30 31 31 31 30 31 30 28 27 28 27 27 26 25 24 24 24 23 21 21 20 20 21 21 21 20 20 20
35 35 34 32 32 31 31 30 29 29 28 29 29 27 27 29 31 31 31 31 31 30 28 29 28 28 28 27 26 26 26 25 24 22 22 21 21 21 22 22 21 20 20
36 36 35 33 32 32 31 31 31 30 30 29 29 28 27 28 30 31 31 31 31 30 30 28 29 29 29 28 28 27 27 26 24 23 22 21 22 22 22 22 22 22 22
37 37 35 34 34 33 32 32 31 31 31 31 30 29 28 28 29 30 31 31 30 30 29 28 29 29 30 29 28 28 27 26 25 24 23 22 21 22 22 22 22 22 22
37 36 36 36 35 35 34 33 32 32 32 32 32 31 29 29 29 29 30 31 31 30 30 30 30 30 30 30 30 29 28 27 26 25 24 22 21 20 20 21 21 21 21
38 39 38 38 37 36 35 34 33 33 32 32 31 31 30 29 29 30 31 31 30 30 30 31 30 30 30 30 31 30 29 27 26 25 24 23 21 20 19 19 20 20 20
39 39 39 39 38 38 37 37 36 35 34 34 33 33 32 32 31 31 32 32 31 31 32 32 32 31 31 32 31 31 30 28 27 26 25 24 22 21 20 19 18 18 19
40 39 39 38 38 38 37 37 37 36 36 35 35 35 35 34 34 33 33 33 33 33 34 33 33 33 33 34 32 31 30 29 28 28 27 25 23 21 20 19 18 18 17
39 39 38 37 37 37 38 38 38 38 38 37 36 36 37 37 37 37 35 35 35 34 34 34 34 34 34 34 34 33 31 30 29 28 27 26 24 22 21 19 18 18 17
39 39 39 39 38 38 38 39 39 39 39 39 39 38 39 38 39 39 38 37 37 37 36 36 36 35 36 36 36 35 33 32 31 30 28 27 25 24 22 20 18 17 16
39 39 40 40 39 39 39 39 39 40 40 40 41 41 41 41 41 41 40 39 39 39 39 39 38 38 38 38 39 37 36 35 33 31 30 28 27 25 23 21 19 18 16
41 41 41 42 42 42 41 40 40 41 41 41 41 42 43 44 43 44 44 42 42 41 41 40 39 39 39 39 39 38 38 37 36 34 32 30 29 27 25 23 21 19 18
42 43 43 43 43 43 43 43 43 43 42 42 43 43 44 45 46 46 46 46 45 45 43 42 40 40 41 41 41 40 39 38 38 37 35 33 31 28 26 24 22 20 19
41 42 42 43 43 44 44 45 45 44 44 44 45 45 45 46 47 47 48 48 49 48 46 46 44 42 42 42 42 42 41 41 40 39 37 35 33 30 28 26 24 22 20
41 42 43 44 44 44 45 45 45 46 45 45 46 47 47 49 49 49 51 51 52 51 50 49 47 45 43 44 44 43 43 43 42 41 40 38 36 33 31 28 26 24 22
42 42 43 43 43 43 43 43 44 44 45 45 46 47 49 50 51 52 52 53 54 54 53 52 49 49 47 45 45 45 45 45 44 43 42 40 38 36 33 31 29 26 24
41 41 41 40 40 40 40 41 41 42 43 44 45 47 49 50 51 53 54 55 56 57 56 55 53 52 51 50 47 47 46 46 45 45 44 42 40 38 35 33 31 29 27
40 39 39 38 37 37 37 37 38 39 41 42 44 46 49 50 51 53 55 56 56 58 58 57 56 54 54 51 50 50 49 48 46 44 44 43 41 40 38 36 33 31 29
38 37 37 36 35 34 34 34 36 36 38 40 42 44 46 50 51 53 55 56 57 58 59 58 59 57 56 54 53 53 53 50 47 46 45 43 42 41 39 38 36 34 32
36 35 34 34 33 32 33 33 34 33 34 36 39 41 44 47 49 51 53 55 57 59 60 60 60 60 59 58 56 54 53 53 51 49 47 45 43 41 40 38 37 36 34
36 35 34 33 31 31 31 31 31 31 31 32 35 38 41 45 48 50 51 53 55 58 60 61 61 61 60 59 59 56 54 54 53 50 48 46 44 43 41 40 38 36 35
34 33 32 32 30 29 28 28 27 27 28 29 31 34 37 42 46 48 49 50 52 54 57 59 60 60 61 60 58 58 55 55 54 52 50 48 47 45 43 41 40 38 36
Wind_Direction
292 291 289 287 285 284 284 281 278 277 274 269 262 257 255 254 252 250 248 245 244 241 239 235 233 232 231 229 228 226 224 222 221 223 223 223 223 223 223 223 224 225 225
291 290 290 286 285 283 284 283 280 278 277 272 266 258 254 252 251 251 248 245 243 241 238 234 233 232 231 230 230 229 227 225 225 227 227 227 226 227 228 228 229 230 230
292 290 288 285 283 283 285 283 279 276 274 270 267 260 253 249 249 249 248 245 242 240 236 234 231 229 229 230 230 230 228 227 227 228 229 230 231 231 231 233 234 233 233
294 292 289 286 284 285 285 281 278 275 273 270 267 262 254 248 247 246 246 244 242 240 236 234 229 227 228 228 228 230 229 228 228 229 231 233 234 234 234 234 235 233 234
293 291 288 286 284 283 284 280 277 274 272 268 265 262 256 248 245 244 244 242 240 238 236 232 229 227 226 226 228 229 229 230 230 230 232 234 235 235 235 234 234 235 235
291 289 288 286 283 282 281 278 277 272 270 266 262 260 257 251 245 242 241 240 237 235 235 233 230 228 226 225 226 227 228 228 229 231 233 234 235 235 233 233 234 234 235
289 288 286 285 283 282 281 277 275 271 268 264 261 258 256 253 246 243 240 235 233 233 233 233 232 231 227 225 225 225 226 226 228 229 231 233 234 232 232 232 234 235 235
287 285 284 283 282 280 279 276 274 269 266 264 262 258 253 250 247 241 237 232 231 231 232 231 231 229 224 224 222 223 225 224 225 226 229 232 232 231 232 232 233 234 234
285 284 283 282 280 278 275 273 272 269 265 263 261 256 252 249 243 239 234 232 231 232 231 232 230 226 222 220 220 222 221 220 222 224 227 228 229 228 229 230 231 232 233
286 284 282 280 279 277 274 271 268 267 264 261 259 255 252 248 242 236 234 232 231 231 231 230 227 225 223 219 219 220 219 218 220 222 223 223 224 225 226 228 231 233 234
286 284 282 279 277 275 273 270 267 265 262 258 257 254 250 246 242 237 234 233 231 231 229 228 226 225 223 219 218 219 218 217 218 219 220 220 221 222 224 227 229 231 234
287 284 281 279 276 274 271 269 266 264 261 257 254 251 247 243 240 237 234 231 230 229 228 227 225 222 221 219 219 218 217 217 217 218 218 218 219 219 221 225 228 230 234
289 286 283 280 277 274 271 268 265 262 259 256 253 250 246 242 239 236 235 231 228 228 226 226 224 221 219 219 219 218 218 218 219 218 217 218 218 219 219 221 224 227 231
290 287 284 281 279 276 272 269 265 261 258 255 252 250 245 242 238 235 233 231 228 226 225 224 222 220 219 220 219 219 218 219 218 217 216 217 217 218 218 219 222 224 229
291 288 286 282 280 277 273 270 266 262 258 254 252 250 245 242 238 233 231 231 228 225 223 223 223 221 219 219 219 218 219 218 216 215 215 216 217 218 218 219 222 224 228
292 290 287 284 281 278 275 271 268 264 259 254 251 248 245 241 238 234 231 229 227 226 224 223 222 220 219 218 218 218 218 216 216 216 216 216 216 217 219 221 223 225 228
293 291 288 285 281 278 275 272 268 265 260 255 251 246 243 240 237 233 230 227 226 225 224 222 220 219 219 218 218 219 218 217 217 216 216 216 217 218 219 220 223 225 228
296 292 289 286 283 279 276 272 268 265 261 256 251 246 242 239 236 232 230 228 226 225 223 223 221 220 219 218 218 218 218 217 217 217 217 217 218 219 220 221 223 226 230
299 295 291 288 285 281 277 272 268 264 261 256 250 245 242 239 235 233 231 228 226 225 224 223 223 220 218 218 218 218 218 217 217 217 218 218 219 220 221 222 224 227 230
302 298 294 291 287 283 278 272 268 263 259 254 249 244 241 238 236 234 231 229 227 225 223 223 222 220 219 218 217 218 218 218 217 218 218 219 220 221 222 223 225 228 231
304 302 298 294 289 284 280 273 268 264 259 254 248 244 240 238 235 233 230 229 227 226 225 223 222 221 221 219 219 218 218 218 217 218 219 219 221 222 223 225 226 229 231
308 305 301 296 292 286 282 275 269 265 260 254 248 244 240 237 235 232 230 228 227 226 225 224 222 222 220 219 220 219 219 219 217 217 219 220 221 223 224 226 228 230 233
311 308 304 299 294 289 284 278 272 267 261 254 248 244 240 237 235 233 231 229 227 226 224 222 222 221 221 219 219 220 220 220 219 218 219 220 222 224 225 227 229 231 233
315 311 307 303 299 293 287 281 275 269 263 256 249 244 239 236 234 232 229 228 227 226 224 223 221 221 221 220 219 218 219 220 221 220 219 219 221 223 224 226 229 231 233
318 314 310 306 302 297 290 284 277 270 263 256 250 244 238 234 231 230 228 226 226 225 224 224 222 222 221 222 222 219 219 220 221 221 220 220 221 223 224 226 228 231 233
323 319 315 311 306 302 294 288 280 272 264 256 249 244 238 232 229 227 226 225 224 224 223 223 223 222 222 222 222 221 221 220 221 222 221 222 223 225 226 227 229 231 232
Height
5860 5858 5856 5854 5853 5852 5851 5850 5850 5850 5850 5850 5851 5852 5853 5855 5856 5858 5860 5862 5864 5865 5867 5869 5871 5874 5876 5879 5881 5883 5885 5887 5889 5891 5893 5895 5897 5899 5901 5902 5904 5906 5907
5852 5850 5849 5847 5846 5845 5844 5844 5843 5842 5842 5843 5843 5844 5846 5847 5849 5851 5853 5856 5857 5859 5861 5863 5866 5869 5871 5874 5877 5879 5881 5884 5886 5888 5890 5892 5894 5896 5898 5900 5902 5903 5905
5845 5843 5841 5840 5838 5837 5836 5836 5836 5835 5835 5835 5835 5836 5838 5839 5841 5844 5846 5849 5851 5853 5855 5857 5860 5863 5866 5869 5872 5875 5877 5880 5882 5884 5886 5888 5890 5892 5895 5896 5898 5901 5902
5836 5835 5833 5831 5830 5829 5828 5828 5827 5827 5827 5828 5828 5828 5830 5832 5834 5836 5839 5841 5844 5845 5848 5851 5854 5857 5861 5864 5867 5870 5873 5875 5877 5880 5882 5884 5886 5888 5891 5893 5895 5897 5899
5828 5827 5825 5823 5822 5821 5820 5820 5819 5819 5820 5820 5820 5821 5822 5823 5826 5829 5831 5834 5836 5839 5842 5845 5848 5851 5855 5858 5862 5865 5868 5871 5873 5875 5878 5880 5882 5884 5886 5889 5891 5893 5895
5820 5819 5817 5815 5814 5813 5813 5812 5811 5811 5811 5812 5812 5813 5815 5816 5818 5821 5823 5826 5829 5832 5835 5839 5842 5845 5849 5852 5856 5860 5863 5866 5868 5871 5873 5875 5877 5879 5882 5884 5887 5889 5891
5812 5810 5809 5807 5806 5805 5804 5804 5803 5803 5803 5804 5804 5806 5807 5808 5811 5813 5816 5819 5822 5826 5829 5832 5836 5839 5843 5847 5850 5854 5858 5861 5863 5866 5868 5870 5872 5875 5877 5880 5882 5885 5887
5803 5801 5800 5798 5797 5797 5796 5795 5795 5795 5795 5795 5796 5797 5799 5802 5803 5805 5808 5812 5815 5818 5822 5826 5829 5833 5836 5841 5845 5849 5852 5855 5858 5861 5863 5866 5868 5870 5872 5875 5877 5880 5882
5793 5792 5790 5789 5788 5787 5787 5786 5786 5786 5787 5787 5788 5789 5791 5794 5796 5798 5801 5805 5808 5812 5816 5819 5823 5826 5830 5834 5838 5843 5846 5850 5853 5856 5859 5861 5863 5866 5868 5870 5873 5875 5877
5783 5781 5780 5778 5777 5777 5777 5777 5777 5777 5778 5779 5779 5781 5783 5785 5788 5791 5794 5797 5801 5804 5808 5812 5816 5820 5824 5828 5832 5837 5841 5844 5848 5851 5854 5857 5859 5861 5864 5866 5868 5870 5873
5772 5770 5768 5767 5766 5766 5766 5766 5766 5767 5768 5769 5770 5772 5773 5776 5779 5782 5786 5789 5793 5797 5801 5805 5810 5814 5817 5821 5826 5830 5835 5838 5842 5846 5850 5852 5855 5857 5860 5862 5864 5866 5868
5760 5758 5757 5755 5754 5754 5754 5754 5755 5756 5757 5759 5760 5762 5764 5767 5770 5774 5777 5781 5785 5789 5793 5798 5802 5807 5811 5815 5819 5824 5828 5833 5836 5841 5845 5848 5850 5853 5855 5858 5860 5862 5864
5748 5746 5744 5743 5742 5742 5742 5742 5743 5744 5746 5747 5749 5752 5754 5757 5760 5764 5768 5772 5776 5780 5785 5790 5794 5799 5804 5809 5813 5817 5822 5827 5831 5835 5839 5843 5846 5849 5851 5853 5856 5858 5860
5737 5734 5732 5731 5730 5729 5729 5729 5730 5732 5733 5735 5738 5740 5743 5746 5750 5753 5758 5762 5767 5772 5777 5782 5787 5792 5796 5801 5806 5811 5815 5820 5825 5829 5834 5838 5841 5844 5847 5849 5852 5854 5856
5725 5722 5719 5718 5716 5716 5716 5716 5717 5718 5720 5722 5725 5728 5731 5735 5739 5743 5747 5752 5758 5763 5768 5773 5778 5783 5788 5793 5798 5803 5808 5813 5818 5823 5828 5832 5836 5840 5842 5845 5848 5850 5852
5713 5709 5707 5705 5703 5702 5701 5702 5703 5704 5706 5708 5711 5715 5718 5722 5726 5731 5736 5741 5747 5753 5758 5764 5769 5774 5780 5785 5790 5796 5801 5806 5812 5817 5822 5826 5831 5834 5837 5840 5843 5846 5848
5700 5696 5693 5690 5689 5687 5687 5687 5688 5689 5691 5694 5697 5701 5705 5709 5713 5718 5723 5729 5735 5742 5748 5754 5759 5764 5770 5776 5782 5788 5793 5799 5805 5810 5815 5820 5825 5828 5832 5835 5838 5841 5844
5686 5682 5679 5676 5674 5672 5671 5670 5671 5672 5675 5678 5681 5686 5690 5695 5700 5705 5711 5717 5723 5730 5737 5743 5749 5755 5761 5767 5773 5779 5784 5791 5797 5802 5808 5813 5818 5822 5826 5830 5833 5836 5839
5673 5669 5665 5661 5658 5656 5654 5653 5654 5655 5657 5661 5665 5669 5674 5680 5685 5691 5697 5704 5711 5717 5725 5732 5738 5744 5750 5757 5763 5769 5776 5782 5788 5794 5800 5806 5811 5816 5820 5824 5828 5831 5834
5660 5655 5650 5646 5642 5640 5638 5637 5637 5638 5640 5643 5647 5652 5658 5663 5670 5676 5682 5689 5697 5704 5711 5719 5726 5733 5739 5746 5753 5759 5766 5773 5779 5786 5792 5798 5803 5808 5813 5817 5821 5825 5828
5648 5642 5637 5632 5627 5625 5622 5621 5621 5621 5623 5626 5630 5635 5641 5646 5653 5659 5667 5674 5682 5689 5697 5705 5713 5720 5728 5735 5742 5749 5756 5763 5770 5777 5783 5790 5796 5801 5806 5810 5815 5818 5822
5636 5630 5624 5619 5614 5611 5608 5606 5606 5606 5607 5610 5613 5618 5623 5630 5636 5643 5650 5658 5666 5675 5683 5691 5699 5707 5715 5723 5731 5738 5745 5753 5761 5768 5774 5781 5787 5793 5798 5803 5807 5811 5815
5625 5618 5612 5607 5602 5598 5595 5593 5592 5592 5593 5594 5598 5602 5607 5613 5619 5626 5634 5642 5651 5659 5669 5678 5686 5694 5702 5711 5719 5727 5734 5743 5751 5758 5764 5771 5778 5784 5790 5795 5800 5804 5808
5615 5608 5601 5596 5591 5586 5583 5580 5579 5578 5579 5580 5583 5587 5592 5597 5604 5611 5618 5627 5635 5645 5655 5664 5673 5681 5688 5697 5706 5715 5723 5731 5739 5747 5755 5762 5769 5775 5781 5787 5792 5797 5801
5605 5598 5592 5586 5580 5576 5571 5568 5566 5566 5566 5567 5569 5572 5577 5583 5589 5596 5604 5613 5622 5630 5638 5648 5657 5666 5675 5684 5693 5702 5711 5720 5728 5737 5745 5753 5760 5766 5772 5778 5784 5788 5793
5597 5590 5583 5576 5571 5566 5561 5558 5555 5555 5555 5555 5557 5560 5564 5570 5575 5582 5590 5599 5607 5616 5624 5634 5643 5652 5662 5671 5680 5690 5699 5709 5717 5726 5735 5743 5750 5757 5763 5770 5775 5780 5785